This is the latest recevied weather packets stored in our database for station/object DH8TOM-3. If no packets are shown the sender has not sent any weather packets the latest 10 day(s).
| Time | Temp. | Humidity | Pressure | Rain* | Wind** | Luminosity | Snow |
|---|---|---|---|---|---|---|---|
| 1778020772 | 16.11° C | 79% | 1004.5 hPa | 2.54 mm | - | - | - |
| 1778020472 | 16.11° C | 79% | 1004.7 hPa | 2.79 mm | - | - | - |
| 1778020171 | 16.11° C | 79% | 1004.7 hPa | 2.79 mm | - | - | - |
| 1778019870 | 16.67° C | 79% | 1005 hPa | 3.3 mm | - | - | - |
| 1778019568 | 16.67° C | 79% | 1005 hPa | 3.3 mm | - | - | - |
| 1778019268 | 16.67° C | 79% | 1005.2 hPa | 3.05 mm | - | - | - |
| 1778018967 | 16.67° C | 79% | 1005.2 hPa | 3.05 mm | - | - | - |
| 1778018667 | 16.67° C | 78% | 1005.2 hPa | 2.54 mm | - | - | - |
| 1778018365 | 16.67° C | 78% | 1005.2 hPa | 2.54 mm | - | - | - |
| 1778018064 | 16.67° C | 77% | 1005.4 hPa | 2.03 mm | - | - | - |
| 1778017762 | 16.67° C | 77% | 1005.4 hPa | 2.03 mm | - | - | - |
| 1778017462 | 17.22° C | 76% | 1005.5 hPa | 1.52 mm | - | - | - |
| 1778017161 | 17.22° C | 76% | 1005.5 hPa | 1.52 mm | - | - | - |
| 1778016860 | 17.78° C | 75% | 1005.5 hPa | 1.02 mm | - | - | - |
| 1778016590 | 17.78° C | 75% | 1005.5 hPa | 1.02 mm | - | - | - |
| 1778016258 | 17.78° C | 74% | 1005.7 hPa | 0.51 mm | - | - | - |
| 1778015957 | 17.78° C | 74% | 1005.7 hPa | 0.51 mm | - | - | - |
| 1778015657 | 17.78° C | 72% | 1005.7 hPa | 0.25 mm | - | - | - |
| 1778015355 | 17.78° C | 72% | 1005.7 hPa | 0.25 mm | - | - | - |
| 1778015054 | 18.33° C | 72% | 1005.5 hPa | 0 mm | - | - | - |
| 1778014753 | 18.33° C | 72% | 1005.5 hPa | 0 mm | - | - | - |
| 1778014452 | 18.33° C | 69% | 1005.4 hPa | 0 mm | - | - | - |
| 1778014151 | 18.33° C | 69% | 1005.4 hPa | 0 mm | - | - | - |
| 1778013850 | 18.33° C | 68% | 1005.4 hPa | 0 mm | - | - | - |
| 1778013550 | 18.33° C | 68% | 1005.4 hPa | 0 mm | - | - | - |
* Rain latest hour (hover to see other rain measurements)
** Current wind speed in m/s (hover to see current wind gust speed)